Regional Weather Roundup
Issued by NWS

Home | Current Version | Previous Version | Text Only | Print | Product List | Glossary Off
Versions: 1 2 3 4 5 6 7 8 9 10 11 12 13 14 15 16 17 18 19 20 21 22 23 24 25 26 27 28 29 30 31 32 33 34 35 36 37 38 39 40 41 42 43 44 45 46 47 48 49 50

548
ASUS45 KSLC 290210
RWRUT

UTAH REGIONAL WEATHER ROUNDUP
NATIONAL WEATHER SERVICE SALT LAKE CITY UT
800 PM MDT SUN AUG 28 2016

UTZ001>011-023>025-290300-

NORTHERN UTAH

CITY           SKY/WX    TMP DP  RH WIND       PRES   REMARKS
BRIGHAM CITY     N/A     82  31  15 S3        30.13S
HILL AFB       CLEAR     82  33  16 NW3       30.16F
LOGAN          CLEAR     82  37  20 CALM      30.13S
OGDEN          CLEAR     82  34  17 CALM      30.13S
PROVO AIRPORT  PTCLDY    81  45  28 NW8       30.13R
SALT LAKE CITY PTCLDY    84  33  16 N7        30.11S
VERNAL         CLEAR     75  36  24 W6        30.17R
WENDOVER       CLEAR     84  36  17 SE5       30.12S
HEBER CITY     CLEAR     73  32  21 N8        30.19R
WEST JORDAN    CLEAR     79  33  19 N6        30.15S

$$

UTZ012>022-026-027-290300-

SOUTHERN/CENTRAL UTAH

CITY           SKY/WX    TMP DP  RH WIND       PRES   REMARKS
BLANDING       PTCLDY    70  46  41 CALM      30.31S
BRYCE CANYON   PTCLDY    61  48  62 W5        30.38R
CEDAR CITY     PTCLDY    73  45  36 SW12G21   30.21R
MILFORD        CLEAR     83  31  15 NE10      30.15R
MOAB/CYNLANDS  CLEAR     80  42  25 SE5       30.13R
PRICE          PTCLDY    78  32  18 N3        30.22R
ST GEORGE      CLEAR     90  48  24 CALM      30.05S

$$

REGIONAL REPORTS     COLORADO/ARIZONA

CITY           SKY/WX    TMP DP  RH WIND       PRES   REMARKS
CRAIG, CO      CLOUDY    70  37  29 SE17G29   30.26R
GRAND JUNCTION CLOUDY    73  42  32 NW7       30.19R
RIFLE          CLOUDY    64  48  56 SE20      30.28R
MONTROSE       CLOUDY    62  44  51 S24G37    30.33R
CORTEZ         CLOUDY    64  47  53 S12       30.26R
PAGE, AZ       CLEAR     82  41  23 E3        30.13R
GRAND CANYON   CLEAR     65  46  50 NE3       30.32R
KINGMAN        CLEAR     85  50  29 N5        30.07S
FLAGSTAFF      CLEAR     63  43  48 E6        30.32R

$$

REGIONAL REPORTS    NEVADA/IDAHO/WYOMING

CITY           SKY/WX    TMP DP  RH WIND       PRES   REMARKS
LAS VEGAS, NV  PTCLDY    94  43  17 VRB5      29.95S HX  90
ELY            PTCLDY    77  23  13 N6        30.24S
ELKO           CLEAR     82  25  12 W5        30.17R
POCATELLO, ID  CLEAR     77  38  24 SW9       30.15S
BURLEY         CLEAR     70  49  47 SW8       30.11F
EVANSTON, WY   CLEAR     70  22  16 NW9       30.33R
ROCK SPRINGS   CLEAR     71  22  15 W6        30.26R

$$




USA.gov is the U.S. government's official web portal to all federal, state and local government web resources and services.